QPF
0.00 0.00 0.00 0.00 0.00 0.00 0.00 0.00 0.00 0.00 0.00 0.00 0.00 0.00 0.00 0.00 0.00 0.00 0.00 0.00 0.00 0.00 0.00 0.00 0.00 0.00 0.00 0.00 0.00 0.00 0.00 0.00 0.00 0.00 0.00 0.00 0.00 0.00 0.00 0.00 0.00 0.00 0.00
0.00 0.00 0.00 0.00 0.00 0.00 0.00 0.00 0.00 0.00 0.00 0.00 0.00 0.00 0.00 0.00 0.00 0.00 0.00 0.00 0.00 0.00 0.00 0.00 0.00 0.00 0.00 0.00 0.00 0.00 0.00 0.00 0.00 0.00 0.00 0.00 0.00 0.00 0.00 0.00 0.00 0.00 0.00
0.00 0.00 0.00 0.00 0.00 0.00 0.00 0.00 0.00 0.00 0.00 0.00 0.00 0.00 0.00 0.00 0.00 0.00 0.00 0.00 0.00 0.00 0.00 0.00 0.00 0.00 0.00 0.00 0.00 0.00 0.00 0.00 0.00 0.01 0.00 0.00 0.00 0.00 0.00 0.00 0.00 0.00 0.00
0.00 0.00 0.00 0.00 0.00 0.00 0.00 0.00 0.00 0.00 0.00 0.00 0.00 0.00 0.00 0.00 0.00 0.00 0.00 0.00 0.00 0.00 0.00 0.00 0.00 0.00 0.00 0.00 0.00 0.00 0.00 0.01 0.02 0.02 0.01 0.01 0.01 0.01 0.01 0.01 0.00 0.00 0.00
0.00 0.00 0.00 0.00 0.00 0.00 0.00 0.00 0.00 0.00 0.00 0.00 0.00 0.00 0.00 0.00 0.00 0.00 0.00 0.00 0.00 0.00 0.00 0.00 0.00 0.00 0.00 0.01 0.01 0.01 0.01 0.02 0.02 0.02 0.01 0.01 0.01 0.02 0.01 0.01 0.01 0.01 0.01
0.00 0.00 0.00 0.00 0.00 0.00 0.00 0.00 0.00 0.00 0.00 0.00 0.00 0.00 0.00 0.00 0.00 0.00 0.00 0.00 0.00 0.00 0.00 0.00 0.00 0.00 0.01 0.01 0.01 0.02 0.02 0.03 0.03 0.02 0.02 0.01 0.01 0.00 0.01 0.02 0.03 0.03 0.02
0.00 0.00 0.00 0.00 0.00 0.00 0.00 0.00 0.00 0.00 0.00 0.00 0.00 0.00 0.00 0.00 0.00 0.00 0.00 0.00 0.00 0.00 0.00 0.00 0.00 0.00 0.00 0.01 0.01 0.01 0.02 0.03 0.04 0.03 0.02 0.01 0.00 0.00 0.01 0.03 0.03 0.02 0.01
0.00 0.00 0.00 0.00 0.00 0.00 0.00 0.00 0.00 0.00 0.00 0.00 0.00 0.00 0.00 0.00 0.00 0.00 0.00 0.00 0.00 0.00 0.00 0.00 0.00 0.00 0.00 0.00 0.00 0.01 0.01 0.01 0.02 0.04 0.06 0.04 0.01 0.00 0.01 0.02 0.02 0.03 0.02
0.00 0.00 0.00 0.00 0.00 0.00 0.00 0.00 0.00 0.00 0.00 0.00 0.00 0.00 0.00 0.00 0.00 0.00 0.01 0.00 0.00 0.00 0.00 0.00 0.00 0.00 0.00 0.00 0.01 0.01 0.01 0.00 0.00 0.02 0.04 0.06 0.05 0.04 0.03 0.06 0.08 0.09 0.06
0.00 0.00 0.00 0.00 0.00 0.00 0.00 0.00 0.00 0.00 0.00 0.00 0.00 0.00 0.00 0.00 0.00 0.00 0.01 0.01 0.00 0.00 0.00 0.00 0.00 0.00 0.00 0.01 0.01 0.01 0.02 0.01 0.00 0.01 0.02 0.04 0.07 0.10 0.12 0.12 0.08 0.05 0.03
0.00 0.00 0.00 0.00 0.00 0.00 0.00 0.00 0.00 0.00 0.00 0.00 0.00 0.00 0.00 0.00 0.00 0.00 0.01 0.01 0.01 0.01 0.01 0.00 0.00 0.00 0.01 0.01 0.02 0.02 0.02 0.02 0.02 0.02 0.01 0.02 0.04 0.06 0.08 0.13 0.15 0.10 0.05
0.00 0.00 0.00 0.00 0.00 0.00 0.00 0.00 0.00 0.00 0.00 0.00 0.00 0.00 0.00 0.00 0.00 0.00 0.01 0.02 0.02 0.02 0.01 0.01 0.00 0.01 0.01 0.02 0.02 0.02 0.03 0.04 0.06 0.05 0.04 0.03 0.02 0.02 0.03 0.04 0.08 0.10 0.07
0.00 0.00 0.00 0.00 0.00 0.00 0.00 0.00 0.00 0.00 0.00 0.00 0.00 0.00 0.00 0.00 0.00 0.00 0.01 0.01 0.02 0.01 0.01 0.01 0.01 0.02 0.02 0.02 0.02 0.03 0.04 0.05 0.07 0.08 0.05 0.02 0.01 0.01 0.02 0.03 0.04 0.06 0.08
0.00 0.00 0.00 0.00 0.00 0.00 0.00 0.00 0.00 0.00 0.00 0.01 0.01 0.01 0.01 0.01 0.01 0.01 0.01 0.01 0.01 0.01 0.01 0.01 0.01 0.01 0.01 0.01 0.01 0.02 0.03 0.04 0.06 0.07 0.05 0.03 0.02 0.03 0.04 0.04 0.04 0.04 0.06
0.00 0.00 0.00 0.00 0.00 0.00 0.00 0.00 0.00 0.00 0.00 0.02 0.02 0.03 0.04 0.04 0.02 0.02 0.03 0.03 0.03 0.03 0.03 0.03 0.02 0.02 0.02 0.01 0.01 0.01 0.02 0.03 0.05 0.06 0.06 0.05 0.05 0.04 0.04 0.03 0.04 0.04 0.04
0.00 0.00 0.00 0.00 0.00 0.00 0.00 0.00 0.00 0.00 0.00 0.01 0.01 0.02 0.02 0.03 0.03 0.03 0.03 0.03 0.03 0.04 0.04 0.04 0.04 0.03 0.02 0.02 0.01 0.01 0.01 0.02 0.03 0.04 0.06 0.06 0.05 0.04 0.04 0.04 0.04 0.04 0.03
0.00 0.00 0.00 0.00 0.00 0.00 0.00 0.01 0.01 0.01 0.00 0.00 0.01 0.01 0.02 0.02 0.02 0.03 0.03 0.03 0.03 0.03 0.03 0.03 0.02 0.02 0.02 0.02 0.02 0.01 0.01 0.02 0.03 0.04 0.04 0.05 0.05 0.05 0.04 0.04 0.03 0.04 0.03
0.00 0.00 0.00 0.00 0.00 0.01 0.01 0.01 0.02 0.02 0.02 0.01 0.00 0.00 0.01 0.01 0.02 0.02 0.03 0.03 0.02 0.01 0.02 0.02 0.02 0.02 0.02 0.02 0.02 0.02 0.02 0.03 0.04 0.04 0.04 0.04 0.05 0.04 0.04 0.03 0.03 0.02 0.02
0.00 0.00 0.00 0.00 0.01 0.01 0.01 0.01 0.01 0.02 0.02 0.02 0.01 0.00 0.00 0.01 0.01 0.01 0.02 0.02 0.03 0.02 0.01 0.01 0.01 0.02 0.02 0.02 0.02 0.02 0.03 0.03 0.03 0.04 0.04 0.04 0.04 0.04 0.03 0.02 0.02 0.02 0.03
0.00 0.00 0.00 0.01 0.01 0.01 0.01 0.02 0.02 0.03 0.03 0.02 0.02 0.01 0.01 0.02 0.02 0.01 0.01 0.02 0.03 0.02 0.01 0.01 0.01 0.01 0.02 0.02 0.02 0.02 0.03 0.03 0.03 0.04 0.04 0.04 0.03 0.03 0.03 0.02 0.02 0.02 0.02
0.00 0.00 0.00 0.01 0.01 0.01 0.02 0.03 0.03 0.04 0.03 0.02 0.01 0.01 0.03 0.04 0.03 0.02 0.02 0.02 0.02 0.02 0.02 0.02 0.01 0.01 0.02 0.02 0.02 0.02 0.03 0.02 0.02 0.03 0.03 0.03 0.03 0.03 0.02 0.02 0.02 0.02 0.02
0.00 0.01 0.01 0.02 0.02 0.02 0.02 0.03 0.03 0.03 0.02 0.02 0.01 0.01 0.01 0.02 0.02 0.02 0.02 0.02 0.02 0.02 0.02 0.02 0.02 0.02 0.02 0.02 0.02 0.02 0.02 0.02 0.02 0.02 0.02 0.02 0.02 0.02 0.02 0.02 0.02 0.02 0.01
0.01 0.02 0.02 0.01 0.01 0.01 0.02 0.02 0.02 0.02 0.02 0.02 0.02 0.02 0.02 0.02 0.02 0.02 0.02 0.02 0.01 0.01 0.01 0.02 0.02 0.02 0.02 0.02 0.02 0.02 0.02 0.02 0.01 0.02 0.02 0.02 0.01 0.01 0.01 0.01 0.01 0.01 0.01
0.02 0.02 0.02 0.01 0.01 0.02 0.02 0.02 0.02 0.02 0.02 0.02 0.02 0.02 0.02 0.02 0.02 0.02 0.01 0.01 0.01 0.01 0.01 0.01 0.01 0.01 0.01 0.01 0.01 0.02 0.02 0.01 0.01 0.02 0.02 0.01 0.01 0.01 0.01 0.01 0.01 0.01 0.01
0.01 0.01 0.01 0.01 0.02 0.02 0.02 0.02 0.02 0.02 0.02 0.02 0.02 0.02 0.02 0.02 0.01 0.01 0.01 0.01 0.01 0.01 0.01 0.01 0.01 0.01 0.01 0.01 0.01 0.01 0.01 0.01 0.01 0.01 0.02 0.02 0.02 0.01 0.01 0.02 0.02 0.01 0.02
0.01 0.01 0.01 0.01 0.02 0.03 0.03 0.03 0.02 0.02 0.02 0.02 0.02 0.02 0.02 0.02 0.01 0.01 0.01 0.01 0.01 0.01 0.01 0.01 0.01 0.01 0.01 0.01 0.01 0.01 0.01 0.01 0.01 0.02 0.02 0.03 0.02 0.02 0.01 0.02 0.02 0.02 0.02
MSLP
1018.40 1018.37 1018.31 1018.19 1018.00 1017.74 1017.42 1017.07 1016.69 1016.31 1015.92 1015.54 1015.13 1014.70 1014.22 1013.70 1013.15 1012.61 1012.09 1011.64 1011.30 1011.07 1010.94 1010.92 1010.96 1011.03 1011.08 1011.10 1011.06 1010.97 1010.85 1010.72 1010.60 1010.51 1010.47 1010.47 1010.50 1010.54 1010.58 1010.61 1010.62 1010.62 1010.64
1018.31 1018.24 1018.13 1017.97 1017.74 1017.45 1017.10 1016.72 1016.32 1015.92 1015.51 1015.10 1014.66 1014.19 1013.66 1013.09 1012.48 1011.86 1011.26 1010.72 1010.27 1009.93 1009.70 1009.56 1009.50 1009.49 1009.48 1009.47 1009.44 1009.38 1009.32 1009.26 1009.23 1009.23 1009.28 1009.36 1009.46 1009.56 1009.64 1009.69 1009.71 1009.72 1009.73
1018.20 1018.07 1017.91 1017.68 1017.40 1017.05 1016.66 1016.23 1015.79 1015.36 1014.92 1014.48 1014.02 1013.52 1012.97 1012.37 1011.73 1011.08 1010.43 1009.83 1009.30 1008.86 1008.53 1008.28 1008.11 1007.99 1007.91 1007.84 1007.78 1007.74 1007.71 1007.71 1007.76 1007.86 1008.00 1008.17 1008.35 1008.52 1008.67 1008.76 1008.82 1008.85 1008.87
1018.08 1017.87 1017.63 1017.33 1016.96 1016.54 1016.08 1015.60 1015.12 1014.64 1014.16 1013.69 1013.21 1012.69 1012.14 1011.54 1010.90 1010.24 1009.58 1008.95 1008.37 1007.87 1007.45 1007.10 1006.83 1006.61 1006.43 1006.29 1006.18 1006.11 1006.10 1006.14 1006.24 1006.41 1006.63 1006.89 1007.16 1007.41 1007.62 1007.78 1007.90 1007.97 1008.03
1017.93 1017.64 1017.30 1016.91 1016.46 1015.95 1015.42 1014.87 1014.33 1013.80 1013.29 1012.79 1012.28 1011.75 1011.20 1010.61 1009.98 1009.34 1008.69 1008.06 1007.47 1006.93 1006.45 1006.03 1005.67 1005.35 1005.09 1004.87 1004.70 1004.59 1004.55 1004.60 1004.73 1004.94 1005.22 1005.54 1005.87 1006.19 1006.48 1006.71 1006.90 1007.03 1007.15
1017.75 1017.37 1016.94 1016.44 1015.90 1015.32 1014.71 1014.11 1013.51 1012.93 1012.38 1011.84 1011.31 1010.77 1010.21 1009.63 1009.02 1008.40 1007.77 1007.15 1006.57 1006.02 1005.51 1005.04 1004.62 1004.24 1003.89 1003.60 1003.37 1003.21 1003.13 1003.15 1003.28 1003.49 1003.79 1004.15 1004.52 1004.90 1005.25 1005.55 1005.81 1006.02 1006.20
1017.52 1017.05 1016.53 1015.95 1015.33 1014.68 1014.02 1013.36 1012.72 1012.10 1011.51 1010.94 1010.38 1009.81 1009.24 1008.65 1008.04 1007.43 1006.82 1006.23 1005.65 1005.11 1004.59 1004.11 1003.66 1003.23 1002.84 1002.49 1002.20 1001.98 1001.86 1001.83 1001.92 1002.11 1002.40 1002.75 1003.14 1003.55 1003.94 1004.31 1004.63 1004.92 1005.18
1017.23 1016.69 1016.10 1015.46 1014.78 1014.09 1013.39 1012.70 1012.03 1011.39 1010.76 1010.15 1009.55 1008.94 1008.33 1007.71 1007.08 1006.46 1005.85 1005.26 1004.70 1004.17 1003.67 1003.19 1002.73 1002.29 1001.88 1001.50 1001.17 1000.91 1000.73 1000.66 1000.69 1000.83 1001.08 1001.40 1001.78 1002.19 1002.60 1003.01 1003.39 1003.75 1004.07
1016.90 1016.30 1015.65 1014.97 1014.26 1013.55 1012.84 1012.14 1011.47 1010.80 1010.15 1009.50 1008.85 1008.18 1007.51 1006.83 1006.15 1005.49 1004.86 1004.26 1003.70 1003.18 1002.69 1002.23 1001.80 1001.37 1000.97 1000.59 1000.24 999.95 999.74 999.61 999.59 999.67 999.86 1000.14 1000.48 1000.87 1001.29 1001.71 1002.13 1002.54 1002.92
1016.51 1015.88 1015.20 1014.50 1013.79 1013.07 1012.37 1011.68 1011.00 1010.33 1009.65 1008.96 1008.25 1007.51 1006.76 1006.01 1005.26 1004.53 1003.85 1003.22 1002.65 1002.13 1001.67 1001.24 1000.83 1000.45 1000.07 999.71 999.37 999.08 998.84 998.68 998.60 998.63 998.76 998.98 999.28 999.64 1000.04 1000.46 1000.90 1001.33 1001.76
1016.11 1015.45 1014.76 1014.05 1013.34 1012.64 1011.95 1011.27 1010.60 1009.92 1009.21 1008.48 1007.70 1006.89 1006.06 1005.21 1004.38 1003.58 1002.84 1002.17 1001.58 1001.06 1000.61 1000.22 999.85 999.51 999.18 998.86 998.55 998.26 998.02 997.83 997.73 997.71 997.78 997.95 998.20 998.52 998.90 999.31 999.75 1000.19 1000.64
1015.70 1015.03 1014.32 1013.61 1012.91 1012.21 1011.53 1010.86 1010.19 1009.49 1008.76 1007.98 1007.15 1006.26 1005.35 1004.42 1003.51 1002.65 1001.85 1001.14 1000.53 1000.01 999.58 999.21 998.89 998.60 998.31 998.03 997.76 997.50 997.26 997.07 996.95 996.90 996.93 997.06 997.27 997.55 997.90 998.30 998.72 999.16 999.61
1015.30 1014.61 1013.89 1013.17 1012.46 1011.76 1011.08 1010.40 1009.71 1008.99 1008.23 1007.41 1006.53 1005.59 1004.62 1003.64 1002.68 1001.76 1000.93 1000.19 999.57 999.06 998.64 998.29 998.01 997.75 997.51 997.27 997.03 996.79 996.58 996.39 996.26 996.20 996.21 996.31 996.49 996.75 997.07 997.44 997.85 998.28 998.72
1014.90 1014.19 1013.46 1012.71 1011.98 1011.25 1010.54 1009.84 1009.12 1008.38 1007.59 1006.74 1005.83 1004.87 1003.87 1002.87 1001.89 1000.97 1000.12 999.39 998.77 998.26 997.85 997.53 997.26 997.03 996.82 996.61 996.39 996.18 995.99 995.81 995.69 995.62 995.63 995.71 995.87 996.11 996.42 996.77 997.16 997.58 998.00
1014.50 1013.76 1013.00 1012.22 1011.44 1010.68 1009.93 1009.18 1008.43 1007.65 1006.84 1005.98 1005.07 1004.11 1003.13 1002.15 1001.20 1000.30 999.49 998.78 998.18 997.69 997.29 996.98 996.72 996.50 996.29 996.09 995.89 995.69 995.51 995.35 995.23 995.17 995.18 995.26 995.42 995.65 995.95 996.29 996.66 997.05 997.45
1014.07 1013.31 1012.51 1011.68 1010.86 1010.05 1009.25 1008.46 1007.67 1006.87 1006.04 1005.19 1004.30 1003.39 1002.46 1001.54 1000.66 999.82 999.07 998.40 997.84 997.38 996.99 996.68 996.42 996.19 995.97 995.76 995.55 995.36 995.17 995.02 994.92 994.87 994.89 994.98 995.14 995.37 995.65 995.97 996.33 996.69 997.06
1013.59 1012.80 1011.97 1011.11 1010.24 1009.38 1008.54 1007.71 1006.90 1006.08 1005.27 1004.44 1003.60 1002.75 1001.91 1001.08 1000.29 999.54 998.87 998.27 997.75 997.31 996.94 996.62 996.34 996.09 995.85 995.62 995.39 995.18 995.00 994.85 994.76 994.72 994.75 994.85 995.01 995.23 995.51 995.81 996.14 996.47 996.80
1013.04 1012.23 1011.38 1010.50 1009.61 1008.72 1007.85 1007.00 1006.18 1005.37 1004.58 1003.80 1003.02 1002.26 1001.51 1000.79 1000.10 999.46 998.87 998.35 997.88 997.47 997.10 996.77 996.47 996.18 995.91 995.64 995.40 995.17 994.99 994.84 994.75 994.72 994.76 994.87 995.03 995.24 995.49 995.77 996.06 996.35 996.63
1012.41 1011.61 1010.77 1009.89 1008.99 1008.10 1007.23 1006.39 1005.57 1004.79 1004.03 1003.30 1002.60 1001.93 1001.28 1000.67 1000.09 999.55 999.04 998.58 998.16 997.77 997.41 997.06 996.73 996.41 996.10 995.81 995.54 995.31 995.11 994.97 994.89 994.87 994.91 995.02 995.17 995.36 995.57 995.80 996.04 996.27 996.48
1011.73 1010.96 1010.14 1009.29 1008.42 1007.55 1006.70 1005.88 1005.09 1004.35 1003.64 1002.97 1002.34 1001.75 1001.19 1000.67 1000.19 999.73 999.31 998.90 998.52 998.15 997.78 997.43 997.07 996.73 996.39 996.08 995.80 995.55 995.36 995.22 995.14 995.13 995.17 995.26 995.39 995.54 995.71 995.87 996.03 996.18 996.30
1011.02 1010.30 1009.53 1008.73 1007.91 1007.09 1006.28 1005.50 1004.75 1004.04 1003.38 1002.76 1002.19 1001.67 1001.19 1000.75 1000.34 999.95 999.58 999.23 998.87 998.52 998.16 997.79 997.43 997.07 996.71 996.39 996.10 995.86 995.67 995.53 995.46 995.44 995.47 995.54 995.63 995.73 995.83 995.92 995.98 996.03 996.05
1010.32 1009.66 1008.95 1008.22 1007.47 1006.70 1005.95 1005.21 1004.50 1003.83 1003.20 1002.63 1002.10 1001.63 1001.21 1000.82 1000.47 1000.14 999.81 999.49 999.17 998.83 998.48 998.11 997.74 997.38 997.02 996.70 996.41 996.17 995.99 995.86 995.78 995.75 995.77 995.80 995.84 995.87 995.88 995.87 995.83 995.77 995.67
1009.66 1009.07 1008.44 1007.78 1007.09 1006.38 1005.67 1004.97 1004.29 1003.65 1003.05 1002.50 1002.00 1001.57 1001.18 1000.83 1000.52 1000.23 999.94 999.66 999.36 999.04 998.70 998.35 997.98 997.62 997.27 996.95 996.67 996.43 996.25 996.12 996.04 995.99 995.97 995.95 995.93 995.88 995.80 995.69 995.53 995.34 995.11
1009.06 1008.54 1007.98 1007.38 1006.75 1006.09 1005.42 1004.74 1004.08 1003.45 1002.86 1002.32 1001.84 1001.42 1001.06 1000.74 1000.46 1000.20 999.95 999.70 999.43 999.14 998.82 998.48 998.13 997.78 997.43 997.11 996.83 996.60 996.41 996.27 996.16 996.08 996.02 995.94 995.84 995.71 995.53 995.30 995.03 994.71 994.37
1008.52 1008.06 1007.56 1007.01 1006.42 1005.79 1005.14 1004.48 1003.82 1003.19 1002.60 1002.06 1001.59 1001.18 1000.83 1000.54 1000.29 1000.07 999.86 999.64 999.40 999.14 998.84 998.52 998.18 997.83 997.49 997.17 996.88 996.63 996.42 996.25 996.11 995.99 995.86 995.72 995.54 995.31 995.03 994.70 994.31 993.88 993.42
1008.01 1007.61 1007.15 1006.64 1006.08 1005.47 1004.83 1004.16 1003.50 1002.86 1002.26 1001.72 1001.24 1000.85 1000.52 1000.25 1000.04 999.85 999.67 999.49 999.29 999.06 998.78 998.48 998.14 997.79 997.44 997.10 996.79 996.51 996.27 996.06 995.87 995.68 995.49 995.27 995.01 994.69 994.31 993.87 993.38 992.85 992.29
Thickness
5562 5558 5555 5551 5548 5544 5539 5536 5532 5528 5523 5518 5513 5507 5502 5496 5490 5484 5480 5476 5471 5469 5464 5459 5458 5452 5447 5444 5439 5436 5433 5430 5439 5463 5451 5448 5443 5442 5443 5442 5441 5441 5442
5550 5546 5542 5538 5534 5530 5526 5521 5516 5511 5506 5500 5494 5488 5483 5478 5471 5465 5461 5457 5452 5450 5447 5441 5441 5435 5432 5430 5425 5424 5423 5420 5421 5437 5439 5431 5430 5429 5427 5427 5428 5428 5428
5537 5533 5529 5525 5520 5515 5510 5505 5500 5494 5488 5482 5475 5469 5464 5458 5452 5446 5441 5438 5434 5431 5428 5424 5423 5417 5417 5415 5412 5412 5412 5410 5409 5416 5426 5419 5416 5414 5412 5412 5413 5413 5415
5524 5519 5515 5510 5505 5500 5494 5489 5482 5476 5469 5463 5457 5450 5444 5438 5432 5426 5421 5419 5416 5414 5411 5408 5407 5403 5403 5402 5400 5401 5399 5398 5398 5401 5409 5407 5403 5400 5398 5399 5398 5399 5399
5510 5505 5501 5496 5490 5483 5477 5471 5465 5458 5451 5445 5438 5432 5426 5419 5413 5408 5404 5403 5401 5400 5399 5396 5394 5393 5392 5391 5390 5390 5387 5387 5387 5389 5395 5394 5393 5388 5389 5388 5387 5386 5386
5496 5490 5486 5480 5473 5466 5460 5454 5447 5441 5434 5427 5420 5414 5410 5404 5399 5396 5393 5393 5392 5390 5389 5388 5385 5384 5384 5385 5386 5387 5384 5380 5380 5381 5384 5386 5387 5382 5379 5375 5373 5371 5374
5481 5475 5469 5462 5456 5450 5443 5436 5429 5423 5417 5411 5404 5398 5396 5393 5388 5386 5385 5384 5384 5382 5380 5379 5378 5377 5376 5376 5377 5379 5380 5381 5379 5375 5377 5381 5378 5375 5369 5365 5363 5363 5365
5465 5459 5452 5445 5439 5433 5426 5418 5412 5406 5400 5396 5392 5387 5384 5383 5379 5378 5377 5376 5375 5373 5371 5369 5368 5368 5367 5366 5366 5367 5369 5370 5370 5371 5373 5373 5369 5366 5362 5359 5356 5353 5352
5450 5443 5436 5428 5422 5416 5409 5403 5396 5391 5388 5383 5379 5376 5374 5374 5371 5370 5369 5368 5367 5365 5363 5361 5359 5360 5361 5361 5361 5361 5362 5362 5362 5364 5365 5364 5362 5359 5353 5347 5344 5341 5342
5436 5429 5420 5411 5403 5398 5393 5387 5382 5377 5375 5372 5371 5367 5364 5364 5364 5362 5362 5360 5359 5359 5357 5355 5354 5354 5355 5356 5355 5355 5356 5357 5354 5353 5354 5355 5354 5351 5348 5343 5338 5334 5333
5421 5413 5405 5396 5387 5382 5378 5374 5369 5366 5364 5363 5362 5361 5358 5356 5356 5356 5355 5353 5352 5353 5352 5351 5349 5349 5350 5351 5351 5350 5351 5351 5349 5347 5345 5343 5341 5339 5337 5334 5331 5327 5324
5406 5399 5391 5383 5374 5370 5365 5363 5359 5355 5355 5355 5355 5356 5353 5351 5350 5350 5350 5350 5349 5348 5347 5346 5345 5345 5346 5346 5346 5346 5346 5345 5342 5340 5337 5335 5331 5328 5326 5323 5319 5317 5314
5392 5384 5377 5371 5365 5359 5354 5353 5351 5348 5346 5347 5346 5348 5349 5348 5346 5345 5345 5345 5344 5342 5342 5342 5342 5342 5342 5340 5339 5339 5338 5334 5332 5330 5328 5326 5322 5319 5314 5310 5307 5303 5300
5376 5371 5365 5360 5358 5353 5347 5344 5342 5341 5339 5339 5339 5341 5343 5343 5342 5340 5339 5339 5338 5337 5336 5336 5337 5336 5333 5332 5331 5328 5326 5323 5321 5320 5319 5315 5311 5306 5303 5299 5295 5291 5287
5362 5357 5353 5349 5346 5346 5344 5339 5337 5336 5331 5333 5334 5334 5335 5338 5337 5336 5335 5336 5335 5334 5333 5332 5330 5327 5325 5322 5320 5318 5316 5314 5312 5311 5308 5305 5301 5297 5293 5288 5284 5280 5277
5350 5347 5343 5340 5339 5338 5337 5339 5337 5332 5333 5331 5330 5329 5331 5330 5332 5332 5332 5332 5331 5331 5329 5326 5324 5321 5318 5315 5313 5311 5308 5306 5304 5301 5298 5296 5292 5288 5283 5278 5274 5270 5267
5337 5335 5334 5333 5331 5330 5330 5330 5334 5336 5332 5329 5327 5327 5326 5327 5327 5326 5326 5326 5326 5324 5320 5317 5314 5312 5309 5307 5304 5302 5299 5297 5294 5291 5289 5285 5282 5278 5274 5269 5264 5259 5255
5330 5327 5326 5325 5324 5323 5323 5323 5322 5324 5327 5328 5326 5323 5322 5322 5322 5321 5320 5319 5317 5314 5310 5308 5306 5304 5301 5298 5296 5293 5291 5288 5285 5282 5279 5276 5272 5268 5264 5259 5255 5250 5246
5324 5322 5321 5320 5320 5319 5318 5317 5317 5317 5317 5319 5320 5319 5318 5317 5316 5315 5313 5308 5307 5306 5304 5301 5299 5296 5293 5290 5287 5284 5281 5279 5276 5273 5270 5266 5262 5258 5254 5250 5246 5243 5238
5319 5318 5317 5316 5316 5315 5313 5312 5312 5312 5312 5312 5311 5311 5311 5311 5310 5308 5305 5302 5300 5299 5296 5294 5291 5288 5285 5282 5278 5276 5273 5270 5266 5263 5259 5255 5252 5248 5245 5241 5237 5233 5230
5314 5313 5313 5312 5310 5309 5308 5308 5307 5307 5306 5306 5305 5305 5306 5303 5302 5300 5299 5296 5294 5292 5289 5286 5283 5280 5277 5274 5270 5267 5264 5261 5257 5253 5249 5246 5242 5239 5236 5232 5229 5225 5221
5309 5308 5308 5307 5306 5305 5305 5304 5303 5302 5301 5300 5301 5300 5300 5297 5295 5294 5292 5290 5286 5283 5280 5277 5275 5272 5269 5266 5263 5260 5257 5253 5249 5245 5241 5237 5233 5230 5227 5224 5220 5217 5214
5305 5304 5304 5303 5302 5302 5301 5299 5298 5298 5297 5296 5296 5296 5294 5292 5290 5288 5286 5283 5279 5276 5273 5270 5267 5264 5261 5258 5255 5253 5250 5247 5243 5239 5234 5230 5226 5223 5220 5217 5214 5211 5209
5301 5300 5299 5298 5297 5297 5296 5296 5295 5294 5293 5293 5292 5291 5289 5287 5285 5282 5279 5276 5273 5270 5267 5264 5261 5258 5255 5253 5250 5247 5244 5241 5237 5233 5229 5225 5221 5218 5215 5212 5210 5208 5206
5296 5295 5294 5293 5292 5292 5292 5292 5292 5291 5290 5289 5288 5287 5285 5283 5280 5278 5275 5271 5268 5265 5262 5259 5256 5253 5250 5247 5245 5242 5240 5238 5235 5230 5225 5221 5218 5214 5212 5209 5208 5206 5204
5291 5290 5289 5288 5288 5288 5288 5288 5288 5287 5286 5285 5284 5283 5281 5279 5276 5273 5270 5267 5264 5261 5258 5255 5252 5249 5246 5244 5242 5240 5239 5236 5234 5230 5224 5219 5215 5213 5210 5208 5206 5205 5203